Wind_Speed
17 17 16 15 15 14 14 15 15 14 14 14 14 14 13 13 12 12 13 13 12 12 11 11 11 10 9 8 8 9 8 8 8 9 8 8 7 6 5 4 2 4 8 12 13 13 13 13 15 16 15 13 12 11 9 7 6 6 5 6 8 9 9 9 5 3 3 7 11 14 14 18 22 21 21 21 20 19 18 18 18 18 13 12 16 23 28 27
17 17 16 15 14 13 13 13 14 13 14 14 13 13 13 13 12 12 12 12 12 12 11 11 12 11 10 9 8 9 8 8 8 9 8 8 9 7 6 5 4 4 6 10 11 11 11 12 14 15 15 13 11 11 8 7 6 6 4 5 7 7 8 10 6 3 2 6 10 13 12 15 21 22 23 23 22 20 18 20 20 18 18 20 22 26 27 25
16 16 15 14 13 12 12 12 12 12 12 12 12 12 12 12 12 12 12 11 12 11 11 11 11 11 10 9 8 9 8 6 8 9 9 9 9 9 7 5 5 6 7 11 12 12 12 14 14 14 15 16 13 11 10 8 6 4 3 5 6 5 7 10 8 5 1 7 10 12 11 14 20 20 21 22 22 21 20 20 18 19 24 25 25 27 26 24
14 15 15 14 12 12 11 11 11 11 11 10 10 10 11 11 11 11 11 11 11 11 11 11 11 11 10 9 8 9 7 5 8 9 9 10 9 9 8 6 7 7 8 12 15 15 16 18 16 14 17 19 16 13 12 10 6 4 4 6 6 4 7 9 9 8 2 7 11 12 12 15 19 18 17 20 21 21 21 19 15 17 23 24 26 27 25 23
13 13 13 13 12 11 12 12 12 11 11 10 10 9 10 10 10 11 11 11 10 10 10 10 10 10 10 9 8 9 7 5 7 9 8 9 9 10 9 8 9 8 9 13 17 17 17 19 19 18 19 20 17 14 13 10 7 5 5 5 4 4 6 8 9 9 6 4 12 14 11 11 15 16 17 19 21 19 19 21 17 16 18 20 22 25 23 21
13 12 12 12 12 11 12 12 12 12 12 11 10 10 10 9 10 10 11 11 10 10 10 10 10 10 9 8 8 9 9 7 7 7 8 8 9 10 10 10 10 10 8 11 17 18 16 18 21 23 21 19 17 14 13 10 4 1 2 3 3 2 3 6 7 8 9 1 14 13 9 9 12 17 17 17 18 15 15 21 21 18 16 16 19 21 20 18
14 13 12 12 11 11 11 11 12 12 12 12 11 11 10 10 10 10 10 11 11 11 10 10 9 9 9 7 8 10 11 9 8 7 8 9 9 11 11 12 12 11 8 9 15 17 18 20 20 21 19 17 17 15 13 10 7 7 4 5 5 6 7 7 4 2 9 3 11 10 7 11 12 17 18 18 19 16 16 20 22 21 17 16 20 21 19 16
15 14 13 13 12 11 10 10 10 11 12 12 12 12 12 11 11 10 10 10 10 11 11 10 9 9 8 7 8 11 12 10 10 9 8 9 10 11 12 13 13 11 9 9 10 15 19 20 18 18 17 15 14 14 11 9 10 10 7 7 9 10 12 12 8 3 5 5 5 8 8 11 12 15 19 20 19 17 18 21 24 24 19 18 22 23 21 18
15 14 14 14 14 12 11 10 9 10 10 11 12 13 13 13 12 11 10 9 9 9 10 9 8 8 7 7 8 10 10 9 10 11 10 9 9 10 10 12 12 12 11 11 11 15 17 16 16 15 16 12 10 10 8 6 10 10 10 12 15 17 17 16 12 7 4 6 1 7 10 13 13 15 19 19 17 18 21 23 25 26 21 20 23 24 22 19
16 15 14 14 15 15 13 12 11 10 10 11 12 13 13 13 12 11 10 9 8 8 8 7 6 7 6 6 7 7 9 8 8 9 9 10 10 8 9 10 12 13 13 13 13 13 12 14 14 15 12 9 10 10 8 9 11 11 10 10 13 17 19 18 14 11 6 2 2 5 9 11 13 15 18 19 17 20 23 25 28 27 21 21 25 26 24 20
16 15 14 14 15 15 15 14 13 11 10 10 11 11 12 12 11 11 10 9 8 7 6 5 5 5 5 5 5 6 8 7 7 7 8 9 10 9 9 9 12 14 15 14 12 11 13 16 17 17 14 11 10 9 9 10 12 12 12 9 7 9 16 18 16 14 10 4 2 2 9 10 12 15 17 18 18 21 26 29 31 28 22 21 25 27 27 24
16 15 14 14 14 15 15 16 15 13 11 10 10 10 10 10 10 10 10 9 7 6 5 5 4 4 4 4 3 6 7 5 6 7 6 7 9 9 10 10 11 14 15 13 13 14 17 19 19 18 15 11 10 8 9 11 12 12 10 9 5 6 13 15 16 16 12 8 3 2 10 12 10 11 15 17 16 20 27 33 33 29 23 22 26 27 28 27
15 14 14 14 14 15 15 15 15 14 13 11 10 9 9 9 8 8 9 9 7 6 6 6 5 4 3 2 2 4 5 4 4 7 6 7 8 9 10 12 12 14 15 13 16 19 21 22 20 19 16 12 13 11 12 11 12 13 10 11 8 8 13 12 15 17 14 11 5 3 9 12 11 12 16 17 15 19 26 31 32 30 25 23 26 27 28 28
15 14 14 14 15 16 16 16 15 14 13 11 10 8 8 7 7 7 9 10 9 8 7 7 6 4 2 1 1 2 3 3 2 4 6 7 8 9 11 13 13 15 17 17 20 23 24 25 21 21 18 16 16 15 14 13 13 13 12 15 13 12 15 12 15 18 17 13 7 7 7 7 11 16 17 17 15 20 25 28 30 31 26 24 26 26 27 27
16 15 16 15 16 16 16 16 15 14 12 11 10 8 7 6 6 6 8 9 10 10 8 7 6 4 1 0 1 2 4 6 4 3 4 7 8 10 13 14 14 16 19 20 23 24 26 27 23 24 23 20 18 16 16 16 14 12 12 14 14 14 14 12 15 19 19 16 12 11 7 5 11 16 17 17 17 21 26 29 31 31 26 23 25 25 25 26
17 16 16 16 16 16 16 16 14 14 12 10 9 8 7 6 5 6 8 9 9 9 8 6 5 3 1 2 1 2 6 7 4 3 2 4 7 11 15 15 14 17 21 23 24 25 27 27 24 25 25 22 19 17 17 17 15 14 12 13 13 14 13 13 16 18 19 18 16 14 9 8 11 13 17 18 18 20 26 31 32 31 27 24 24 23 25 24
17 17 17 16 15 15 15 15 14 13 12 10 9 8 7 6 5 6 8 9 10 9 8 6 5 4 3 4 2 1 6 7 5 2 1 3 6 10 14 16 15 17 22 25 27 27 26 24 22 23 24 23 20 16 15 17 18 16 14 14 15 16 16 15 17 19 22 24 21 18 14 11 9 12 18 19 18 20 25 30 32 30 28 27 24 22 24 24
16 16 16 16 15 14 14 14 13 12 12 10 9 7 7 6 6 7 8 10 10 9 8 8 7 6 5 6 4 2 3 4 4 3 2 4 6 8 11 13 14 17 24 27 27 26 23 21 19 19 21 24 24 21 19 19 19 17 14 13 12 14 16 16 17 20 24 28 27 24 18 14 12 13 18 18 17 19 23 27 30 31 29 28 26 24 24 24
16 15 15 15 15 14 13 13 12 12 11 11 9 7 5 5 6 6 8 10 10 9 9 10 10 10 8 6 5 2 2 2 4 6 3 4 7 9 8 10 12 15 22 26 24 23 22 20 19 20 22 25 26 26 24 19 17 17 13 12 12 14 17 15 15 18 22 27 30 30 25 20 18 15 18 19 16 18 23 24 27 30 31 31 28 25 24 23
16 16 15 14 14 13 13 13 12 11 11 11 10 7 6 7 8 7 9 11 11 11 10 9 11 12 8 7 5 2 2 2 4 8 6 3 7 10 8 9 12 13 17 20 21 21 20 18 20 22 20 21 24 25 23 18 17 18 15 15 16 19 20 15 12 16 21 28 32 32 29 24 20 17 17 18 18 20 24 25 26 29 31 32 30 27 25 24
18 17 16 15 14 13 12 13 12 11 10 10 10 8 6 8 9 8 9 12 11 11 9 7 9 11 8 6 4 2 4 5 4 8 8 5 5 8 8 11 13 13 15 15 15 15 17 18 20 20 17 16 19 20 20 18 17 17 16 16 17 20 21 17 13 15 19 29 35 33 31 27 20 18 18 19 20 21 22 25 26 28 31 31 30 28 26 24
18 18 17 15 15 13 12 12 13 11 10 9 8 8 7 7 8 7 9 11 9 9 9 7 8 9 7 4 2 4 6 6 6 7 6 3 5 7 10 10 9 11 14 14 13 11 13 16 16 14 14 14 14 14 15 15 15 15 15 16 18 20 19 14 11 13 16 27 34 35 32 28 22 18 19 20 21 18 18 22 22 24 29 30 29 28 27 27
17 18 17 15 14 14 12 11 12 11 10 9 8 8 8 7 7 7 8 9 8 7 6 7 7 7 7 4 5 8 7 6 7 6 3 5 7 8 9 7 6 8 9 10 14 14 13 13 10 8 9 11 12 13 14 15 17 18 18 19 21 19 17 13 10 5 20 24 26 35 32 26 23 20 22 22 19 17 16 21 22 22 24 25 26 26 27 29
17 17 17 15 13 13 12 11 11 11 10 10 10 9 8 7 7 6 7 6 6 6 5 7 9 8 7 6 10 11 8 7 7 5 7 9 7 8 8 6 7 7 7 7 9 12 12 9 8 5 7 10 11 13 14 16 18 19 21 23 24 20 18 16 11 6 27 18 13 28 25 22 27 26 29 28 23 21 21 24 27 26 25 23 24 26 27 29
18 18 17 15 12 12 12 10 10 10 10 11 11 8 6 6 6 6 5 4 4 5 6 8 7 6 7 10 11 12 10 8 5 6 8 7 5 6 9 10 9 8 9 8 8 10 9 5 5 8 10 11 13 14 13 16 18 18 21 23 23 20 16 13 11 9 20 17 15 24 16 17 30 31 32 33 30 30 28 31 32 29 29 28 27 28 27 28
19 18 18 16 12 11 11 10 9 10 10 10 8 3 4 5 5 5 4 3 3 5 8 8 5 5 7 10 11 13 11 7 6 7 4 2 4 7 10 11 11 9 7 7 10 13 10 6 7 9 10 11 14 14 12 14 19 21 20 21 20 19 16 14 14 12 14 15 18 27 20 13 26 32 32 34 35 35 33 34 34 31 31 31 30 29 28 29
20 18 17 16 12 9 10 9 9 11 10 7 5 3 2 4 6 5 4 3 3 7 9 9 9 10 10 9 11 12 7 5 7 5 1 3 1 4 9 11 12 10 7 6 8 9 9 8 8 9 11 13 15 16 12 12 19 21 17 17 18 19 17 15 15 15 15 12 13 29 29 14 18 30 32 36 37 36 37 36 35 33 31 32 31 30 30 29
21 19 17 16 12 9 8 7 9 10 8 5 3 2 4 5 6 5 4 2 3 10 11 10 12 11 8 6 8 7 4 5 7 6 2 3 4 2 5 11 12 11 9 6 6 11 12 10 8 8 12 13 12 15 13 12 18 18 14 16 18 19 17 14 13 14 14 11 15 31 32 13 13 28 32 36 39 39 40 38 36 35 32 32 33 32 32 31
21 19 16 15 12 9 7 6 7 7 5 4 1 4 6 7 7 6 4 3 6 11 9 9 10 6 4 4 5 6 6 6 3 1 2 3 3 5 3 7 10 10 9 8 10 14 13 10 7 6 9 8 8 10 11 13 17 14 11 15 18 18 19 16 14 13 9 8 15 30 34 16 9 25 33 37 41 42 42 39 37 36 32 32 34 34 34 32
20 18 15 13 11 8 5 4 4 3 2 2 2 4 7 8 6 3 4 5 8 9 7 8 7 4 5 3 2 5 6 5 2 2 3 3 4 4 4 1 4 5 5 9 13 15 14 11 8 7 5 3 6 11 12 14 15 13 13 15 19 21 21 16 14 13 7 5 10 20 31 23 9 16 30 37 35 32 35 38 38 37 34 32 34 36 36 34
19 18 15 12 10 7 4 2 2 1 1 2 3 6 8 8 4 2 4 8 8 7 7 8 6 4 5 4 0 4 6 6 5 2 4 5 7 6 5 2 3 4 1 4 9 14 15 12 9 7 5 3 6 11 13 15 13 12 12 13 14 15 16 15 12 9 5 4 7 11 15 17 10 11 22 30 28 25 25 27 31 34 33 33 34 35 36 34
18 17 14 11 8 6 4 1 2 2 3 5 7 8 8 7 7 8 5 6 6 6 7 7 7 6 5 6 4 6 7 8 5 3 4 6 8 8 7 4 1 1 1 2 2 9 11 9 6 7 6 4 5 6 9 13 11 8 10 11 7 4 5 7 7 4 4 6 8 7 5 9 11 12 14 19 25 28 29 25 24 26 27 31 34 34 34 34
17 15 13 9 6 5 2 1 3 4 6 8 10 9 9 8 8 12 11 8 7 7 6 8 9 7 5 7 8 7 6 4 3 3 3 4 7 7 4 4 3 1 0 2 3 3 5 4 4 8 7 3 1 1 1 5 6 5 8 10 6 2 1 2 4 2 4 9 12 12 11 9 12 14 15 18 20 23 29 30 27 27 26 26 30 32 33 34
15 12 8 7 5 3 2 2 4 6 9 10 9 10 12 11 7 10 15 14 12 11 9 8 7 4 3 5 7 6 3 3 3 3 1 1 6 5 1 1 3 2 1 0 4 2 3 3 6 6 3 3 2 5 7 8 8 10 8 8 9 7 3 2 3 1 3 10 14 11 5 3 7 13 19 22 18 15 19 24 25 27 28 27 29 33 35 35
12 9 7 8 6 4 3 5 7 9 11 10 11 15 16 13 9 9 12 13 10 10 9 5 4 2 2 3 4 3 2 5 5 4 2 1 6 8 5 4 4 2 0 0 3 3 5 5 3 3 2 1 2 5 9 7 8 10 7 10 12 11 7 5 6 7 7 6 9 11 6 2 6 14 19 21 19 16 16 18 22 23 27 31 33 35 35 35
12 11 8 7 7 5 6 9 11 12 12 12 16 20 17 13 12 9 7 8 7 7 7 5 4 7 5 5 5 3 5 8 7 7 8 6 8 11 9 9 10 7 5 4 4 4 5 8 7 8 5 3 4 4 9 11 2 4 5 8 11 12 13 11 10 12 11 5 7 14 14 12 11 13 17 20 21 22 22 23 24 22 24 30 35 35 35 35
9 12 12 10 10 10 11 14 14 13 13 16 19 18 14 12 12 9 4 3 4 5 6 9 10 11 9 8 8 6 6 7 5 7 9 6 7 12 10 9 10 8 8 5 5 6 7 13 12 10 9 7 4 2 3 7 4 2 6 9 8 11 17 12 6 6 4 2 5 11 15 15 12 11 13 17 20 22 26 29 28 25 24 28 33 36 35 34
7 10 12 12 15 15 15 15 13 14 16 19 20 17 12 12 13 10 5 2 1 2 6 11 12 10 10 12 15 10 8 7 6 8 9 7 8 12 9 7 9 8 6 3 2 5 8 13 15 14 12 9 6 5 3 5 7 6 8 8 5 4 11 9 3 2 2 1 2 7 13 15 15 16 15 14 16 18 22 27 28 28 26 24 28 35 35 33
11 12 13 16 19 17 15 13 12 14 17 18 18 15 13 13 12 10 9 4 2 4 7 10 10 9 8 9 13 15 12 12 11 10 10 9 10 10 9 9 8 7 7 5 5 6 7 9 13 17 15 12 10 7 6 3 5 6 2 5 8 10 9 7 2 3 2 2 2 3 7 9 10 14 17 17 18 19 20 24 27 30 32 27 25 30 35 35
18 18 18 19 18 15 12 11 11 14 15 13 12 12 12 12 9 9 11 9 6 7 9 9 7 8 8 7 10 15 16 14 11 10 12 12 9 7 9 10 8 7 7 5 7 7 6 8 15 22 20 16 14 11 13 17 12 8 12 16 16 16 11 8 7 7 6 4 3 1 5 4 11 15 12 16 20 23 25 27 28 31 35 33 27 29 33 34
21 21 19 16 15 13 11 11 12 14 12 9 8 8 10 10 7 7 10 11 11 11 10 9 8 8 8 7 8 12 15 14 12 14 15 12 9 8 10 12 9 10 10 9 10 9 8 10 17 25 24 21 19 17 18 19 17 13 14 14 16 20 15 6 5 6 7 6 4 4 7 3 19 19 13 13 18 24 26 29 33 35 34 32 30 30 31 30
19 19 16 14 14 13 12 13 13 12 10 8 8 6 5 6 6 8 9 9 9 10 9 10 10 10 10 9 8 9 11 13 14 15 14 10 11 12 10 11 12 13 13 11 9 7 9 11 15 23 24 24 24 22 22 19 11 5 2 6 12 18 19 14 7 9 11 7 6 9 8 5 13 14 17 15 17 21 21 27 33 37 35 30 30 31 29 26
14 14 12 11 12 11 11 13 13 11 10 8 8 5 2 2 4 5 6 7 6 7 8 9 8 10 12 10 7 7 10 13 14 13 11 9 9 9 7 10 13 14 13 10 8 7 9 9 13 21 25 27 24 16 14 11 3 4 5 2 10 13 18 18 10 10 12 7 6 5 6 5 12 15 22 16 14 20 18 26 31 37 37 30 31 32 29 25
8 9 10 9 8 9 11 13 13 13 12 9 7 7 5 3 3 2 3 5 5 6 8 9 5 5 10 8 5 7 9 8 8 8 8 8 8 6 6 10 13 13 13 12 12 13 10 7 11 16 17 20 14 2 1 7 3 3 4 6 9 10 16 17 10 8 5 5 10 5 3 10 16 18 23 15 7 15 14 24 32 36 35 30 32 34 30 27
7 8 9 7 4 6 11 12 11 13 12 11 11 10 9 9 9 7 5 4 4 5 6 8 4 2 5 6 4 6 6 6 4 2 6 7 6 5 7 11 13 13 13 12 13 15 11 9 11 8 4 7 7 5 10 15 14 14 14 12 10 11 18 18 16 12 6 9 16 9 7 14 16 18 23 20 10 2 7 20 31 35 35 37 39 38 36 33
6 7 9 8 6 7 9 8 7 11 11 10 12 11 11 14 13 12 11 8 5 4 3 4 2 3 4 3 3 4 4 4 4 3 4 6 6 6 8 11 11 11 11 11 14 13 9 8 8 5 4 6 10 13 16 19 21 21 20 18 14 12 15 16 16 13 10 17 20 11 10 17 19 21 20 18 18 13 11 13 23 30 35 42 44 44 43 41
5 7 9 9 7 6 7 6 6 8 9 6 10 10 9 11 9 8 11 12 8 5 3 4 2 1 1 2 2 2 1 3 5 5 5 7 7 5 6 9 9 8 8 8 7 5 4 6 5 5 7 8 11 16 15 14 18 21 21 21 17 14 15 16 16 13 11 16 16 12 14 19 22 23 15 11 18 20 21 18 17 22 30 39 44 45 45 42
2 5 5 5 4 4 4 5 5 6 6 6 7 5 2 5 6 6 9 8 6 5 3 4 5 5 3 2 3 3 3 3 4 5 7 9 8 5 5 6 5 5 6 7 7 4 4 6 7 9 11 10 12 14 12 12 15 16 18 20 19 18 19 19 18 15 13 15 15 16 18 17 19 20 12 6 10 18 23 24 22 20 29 38 39 41 43 42
5 2 2 2 4 5 4 2 1 3 6 8 8 6 4 1 3 5 6 5 4 3 2 2 3 3 2 2 3 4 5 2 1 2 5 7 7 7 7 4 3 4 5 7 7 5 4 5 7 10 12 13 13 12 9 11 15 15 15 15 16 18 19 21 21 17 15 16 14 15 15 13 15 18 12 9 4 6 14 21 25 21 24 35 39 39 40 42
8 4 4 6 7 6 4 1 2 2 5 7 7 7 5 2 1 4 5 4 4 3 1 0 2 1 2 3 2 3 4 3 1 1 3 5 5 6 8 6 6 7 8 9 8 7 7 8 7 10 11 12 12 12 11 12 15 17 15 11 11 14 17 20 21 17 16 17 13 11 11 10 10 12 12 11 13 11 4 11 23 24 21 25 34 39 39 39
10 8 9 11 9 6 3 1 2 2 1 4 5 6 6 4 2 6 8 5 4 3 1 2 2 2 3 3 1 2 4 6 5 4 5 7 8 7 7 7 8 9 9 10 10 9 10 10 10 11 13 13 11 11 12 13 16 18 13 6 7 13 17 18 18 16 17 20 17 13 12 10 9 10 12 13 15 21 17 3 9 15 20 22 25 30 33 35
10 9 10 9 6 4 2 1 3 4 2 1 1 5 8 7 3 6 9 8 6 4 2 1 1 4 4 1 3 5 6 7 9 9 8 9 10 9 7 6 7 8 10 11 12 11 10 11 11 10 12 14 13 12 14 14 14 14 9 5 8 13 17 16 15 13 12 14 16 13 10 9 10 12 15 15 16 20 21 16 12 8 12 18 20 23 26 30
Wind_Direction
323 321 319 318 317 315 312 309 307 305 303 302 302 302 300 298 297 294 293 292 291 289 285 281 276 270 266 262 259 259 258 254 249 246 240 233 236 238 230 222 213 195 187 188 192 187 178 181 184 179 182 186 182 182 178 160 122 82 49 37 46 44 35 29 40 78 132 169 174 179 178 170 165 160 166 171 167 166 162 161 170 179 191 197 179 164 163 164
322 320 320 320 320 319 317 314 312 309 306 304 303 302 301 300 298 297 294 293 293 292 289 284 279 274 268 262 259 258 255 251 247 241 235 227 226 228 225 214 196 189 181 179 183 182 175 178 185 179 177 181 184 191 176 141 114 84 44 43 60 46 24 20 29 67 152 181 175 177 181 174 171 167 166 171 171 170 168 163 171 181 179 179 173 167 170 168
319 318 319 320 322 324 323 322 321 319 316 312 307 302 300 298 298 296 294 293 293 292 292 288 283 279 272 264 258 256 253 249 245 236 229 221 218 221 218 205 192 189 178 174 174 174 171 174 182 178 173 180 180 173 158 139 119 93 64 55 65 50 18 12 20 36 102 181 174 173 180 175 176 178 169 168 172 173 173 170 177 181 175 177 173 171 175 172
315 314 314 316 320 323 323 325 326 326 327 324 317 307 299 295 293 292 290 290 290 291 292 289 288 284 276 268 260 254 248 242 240 234 226 216 209 212 210 198 193 193 183 176 175 176 177 172 168 169 169 172 170 155 151 143 125 123 97 59 42 9 355 4 19 26 49 177 180 177 184 180 177 185 183 178 180 179 176 176 192 190 175 176 175 176 178 175
309 306 306 308 311 315 317 319 320 321 324 325 324 317 308 299 291 286 284 284 284 287 287 288 289 285 281 272 260 251 242 229 229 231 226 213 201 198 197 195 194 195 189 180 183 183 184 176 160 162 164 160 157 149 149 141 122 128 96 48 13 348 355 15 28 22 20 160 174 175 185 189 181 187 192 189 185 182 177 175 191 196 178 175 177 180 180 176
307 300 297 298 299 305 310 312 314 314 315 316 317 316 315 310 299 287 280 278 278 279 281 284 286 287 284 274 261 249 237 216 206 218 220 211 200 193 192 194 195 199 196 186 191 188 184 184 167 161 161 153 148 142 146 147 149 179 43 355 318 308 327 6 21 21 11 113 175 178 193 196 187 189 191 187 181 183 182 174 183 194 186 181 182 182 180 174
308 300 294 292 292 296 301 307 310 312 313 313 312 310 309 309 306 299 287 279 273 271 273 277 283 287 284 275 263 248 235 210 189 191 190 191 194 194 192 192 196 198 194 191 198 193 184 188 178 163 157 152 143 135 144 159 210 255 311 324 301 282 271 297 313 14 8 5 177 181 198 198 194 190 189 184 178 180 182 177 181 191 194 192 188 185 182 176
309 305 298 293 292 292 294 299 304 309 312 311 312 309 306 302 299 300 298 288 277 269 267 270 279 286 285 278 260 250 244 220 201 199 185 181 183 189 192 192 196 192 190 192 194 198 190 191 194 172 148 146 146 137 142 166 209 243 298 316 289 276 271 277 268 241 353 356 178 176 186 198 197 190 190 186 178 175 177 178 180 189 196 197 193 188 187 182
310 309 303 298 295 294 294 294 296 301 305 307 308 308 307 301 291 289 293 294 285 272 265 265 274 284 286 277 261 256 256 239 222 217 208 209 193 181 187 190 190 185 186 183 182 197 196 196 196 164 133 136 156 151 155 205 226 243 286 299 281 270 269 266 253 241 294 344 309 173 178 194 194 191 191 186 180 176 181 182 180 187 196 197 195 191 191 187
310 310 307 302 298 298 298 295 293 293 295 299 301 305 307 302 290 280 280 290 289 275 264 259 272 288 287 278 266 255 254 252 241 221 207 222 217 189 186 186 184 184 185 184 186 191 187 186 174 151 149 168 190 189 195 241 252 251 263 279 284 273 265 258 241 238 250 337 23 161 174 190 197 193 185 186 186 181 187 186 181 188 196 196 196 193 193 193
311 310 309 305 301 300 300 298 296 291 290 292 297 304 306 303 291 274 268 277 283 273 255 252 274 293 294 288 265 240 244 253 252 225 189 207 222 205 199 190 181 183 184 185 183 171 168 169 158 160 178 188 204 222 224 245 255 251 250 247 276 275 252 245 231 233 240 239 359 173 174 176 197 197 185 188 188 183 188 185 180 189 196 195 196 195 195 196
311 311 310 307 303 301 299 299 298 295 292 292 296 302 304 303 291 270 256 259 269 263 247 254 277 294 300 293 252 228 239 251 257 248 208 205 215 206 205 192 180 182 182 182 171 159 160 161 161 171 176 176 199 230 223 232 241 238 236 221 247 271 244 244 234 234 238 233 290 214 184 181 188 188 186 190 185 185 187 180 179 189 195 194 196 197 197 198
313 312 310 307 305 302 300 298 299 298 296 295 297 301 302 299 289 268 248 245 250 249 249 261 277 292 295 283 240 226 234 235 241 244 226 213 208 199 197 185 177 179 176 173 165 158 160 164 171 177 174 186 207 217 205 208 221 219 209 203 227 244 231 239 233 229 227 224 249 210 193 195 180 167 183 190 186 191 186 177 181 190 194 194 197 198 198 200
315 314 313 310 306 305 302 301 301 299 298 298 297 300 298 290 282 263 242 238 239 242 250 262 277 287 281 237 182 199 191 155 176 226 220 204 199 191 185 178 178 177 171 168 166 166 170 173 177 180 184 202 214 218 205 196 207 210 203 202 215 223 222 235 230 223 217 212 216 208 211 211 180 172 186 190 185 194 190 182 184 190 194 196 200 200 198 200
318 316 315 314 311 308 305 304 303 301 299 297 295 299 294 280 270 251 235 234 235 239 243 254 267 265 282 164 175 155 121 103 116 174 197 190 185 180 174 172 180 179 168 167 170 173 178 179 184 187 190 201 210 218 214 210 210 209 211 209 215 224 224 232 232 229 226 215 201 206 217 200 181 180 189 192 184 188 191 187 185 189 194 198 202 201 198 199
321 319 317 316 314 312 309 306 305 303 299 296 293 294 287 272 257 236 226 226 227 234 233 234 237 223 84 96 146 130 106 83 75 129 150 174 179 178 170 164 176 184 170 167 174 179 183 186 190 191 191 198 208 215 218 223 213 206 219 216 212 222 223 227 232 235 239 231 208 202 207 190 186 184 190 194 186 182 185 186 185 188 193 199 202 200 198 199
325 323 320 318 316 315 312 308 307 304 300 297 289 285 283 272 253 231 217 214 218 224 216 206 200 178 123 99 82 94 96 62 32 61 128 179 186 184 176 163 167 183 175 170 177 182 186 191 195 197 195 198 205 210 218 225 214 202 211 215 208 211 217 228 232 227 231 236 225 212 212 210 205 190 188 190 184 184 187 186 186 188 194 200 204 203 201 201
329 327 324 322 320 318 315 311 310 305 301 297 287 284 285 270 250 228 213 208 210 211 203 195 181 156 142 112 91 75 57 34 35 61 144 180 181 188 187 174 167 180 180 177 183 187 189 195 198 201 203 203 202 203 209 215 210 197 200 217 220 220 228 238 241 232 228 232 230 221 214 208 206 192 186 186 181 187 192 189 187 189 196 202 206 207 204 203
329 328 326 325 323 322 319 314 311 307 302 296 290 285 275 255 238 222 215 206 195 192 187 188 178 161 162 145 133 134 48 34 84 85 118 156 168 186 193 184 171 177 185 185 190 192 191 195 199 201 207 207 204 203 207 207 203 200 212 239 257 262 255 250 256 259 246 231 225 224 217 206 204 196 187 187 183 186 193 196 193 192 197 202 207 210 208 207
326 326 325 324 323 323 320 315 311 306 300 294 290 281 259 238 228 225 218 201 188 186 186 194 187 175 175 152 141 164 107 116 104 93 84 93 161 183 194 192 173 172 187 188 190 193 196 202 205 206 209 210 208 209 211 211 206 210 229 246 261 269 259 253 267 278 262 237 227 223 217 211 216 209 187 183 185 186 191 197 197 193 197 204 208 210 210 211
324 322 321 319 317 317 316 311 308 305 302 300 294 282 256 229 227 224 206 192 191 201 205 210 195 188 184 139 127 190 144 151 140 91 59 52 146 163 170 186 180 173 176 174 177 190 204 214 214 212 213 213 214 213 215 221 223 228 239 251 263 263 258 258 264 276 263 236 225 216 209 210 219 213 190 183 190 193 194 196 196 195 199 205 208 209 210 211
323 318 317 316 313 311 311 306 304 304 304 303 297 282 256 231 228 213 192 190 200 214 215 212 198 190 183 155 163 172 143 154 148 93 53 77 131 128 142 167 177 171 167 167 177 193 215 225 220 215 214 213 213 208 212 224 235 245 250 261 264 257 260 269 285 290 249 225 219 209 202 204 210 212 201 198 199 199 202 202 199 197 200 204 207 207 207 207
326 320 316 316 313 308 306 302 299 298 297 295 288 274 253 231 223 209 203 204 202 203 199 191 180 158 154 157 154 149 143 146 128 93 89 144 142 130 134 147 154 158 163 175 189 202 222 223 201 199 211 213 211 203 211 227 239 250 253 260 260 255 265 277 321 292 202 209 220 205 193 191 198 209 209 210 209 204 205 205 204 205 208 209 208 208 207 205
332 327 321 321 319 309 304 301 293 289 290 289 282 270 248 221 215 212 217 217 199 187 168 171 168 150 146 144 143 147 138 122 112 113 140 150 158 152 149 163 171 180 194 199 198 207 222 207 170 196 225 221 216 204 211 229 240 248 249 255 256 255 266 271 304 235 194 204 219 196 188 187 193 201 205 208 211 208 206 202 204 209 216 217 212 210 210 208
334 330 324 324 327 314 306 301 290 285 281 284 289 275 224 201 199 200 212 213 194 184 167 163 154 133 140 145 152 154 139 125 121 132 148 170 197 182 177 183 188 198 207 218 231 232 235 211 192 233 240 228 222 211 212 226 241 250 244 245 250 255 271 273 288 258 207 213 208 192 193 202 199 200 203 205 205 207 208 206 208 210 212 214 213 213 213 211
336 332 324 322 329 321 311 304 291 288 280 283 309 310 191 183 172 171 193 188 161 165 163 158 139 119 138 149 154 149 144 155 148 129 140 245 236 200 193 190 187 187 199 226 238 242 248 243 227 236 243 238 231 223 215 219 238 252 241 235 244 253 268 272 270 265 226 223 217 203 203 204 202 202 204 206 204 206 209 211 213 212 210 212 212 214 214 212
336 335 328 322 328 321 310 306 292 290 287 292 328 332 220 179 158 152 158 144 122 144 148 144 134 125 125 133 144 144 142 166 165 163 177 7 4 197 199 199 193 190 206 243 238 222 220 225 232 239 242 244 242 237 227 213 231 246 235 225 243 253 264 276 275 273 256 241 215 206 207 201 200 207 209 207 205 207 212 215 215 213 211 211 211 213 213 213
335 335 331 324 327 321 305 302 293 293 303 313 317 250 211 173 149 149 148 95 107 144 146 136 128 120 116 129 148 149 114 128 172 212 208 50 30 66 184 199 201 204 211 248 236 193 194 209 220 235 239 243 248 246 242 222 226 241 233 228 250 259 263 280 290 291 273 231 185 193 201 197 207 216 211 204 206 211 216 217 215 213 211 210 211 213 211 212
334 333 331 325 327 323 305 298 292 293 306 312 272 197 189 159 134 131 124 95 124 140 142 139 129 108 104 119 129 126 98 101 151 241 72 52 41 58 86 189 206 220 221 252 238 200 203 223 229 238 236 244 254 249 250 237 234 249 249 244 255 259 263 277 285 292 283 219 189 192 198 198 225 226 211 202 209 217 223 223 218 214 212 211 211 212 212 212
334 333 333 327 325 323 309 294 279 279 272 244 205 173 166 145 133 118 85 110 135 136 136 142 142 116 95 79 96 108 95 106 115 38 54 38 22 14 358 224 231 253 228 240 233 214 213 225 244 245 221 255 251 231 236 236 240 255 256 256 258 258 265 276 278 283 282 219 199 193 201 208 232 233 214 209 215 222 226 225 221 217 214 213 212 211 212 213
335 334 335 332 329 323 315 293 248 248 127 169 165 156 151 128 99 43 93 119 117 115 129 129 133 135 84 35 150 124 104 136 145 60 66 57 34 15 353 324 286 306 261 218 230 227 226 234 252 239 223 274 242 229 235 231 237 253 249 257 265 262 269 277 277 273 267 230 192 166 192 213 226 232 221 224 230 231 229 226 223 221 217 215 213 210 212 214
337 334 333 336 337 326 314 286 172 161 149 154 145 138 140 116 60 33 74 129 105 98 132 123 114 138 110 73 114 136 124 135 139 76 82 69 55 58 53 52 66 297 18 58 255 232 233 253 250 208 216 251 250 248 238 226 234 248 237 240 260 293 291 281 282 256 232 252 230 211 239 247 244 241 234 245 247 237 234 235 234 231 221 214 214 211 210 212
341 336 334 342 346 335 334 95 142 154 146 142 137 120 109 100 59 41 60 89 83 79 126 136 120 131 127 92 97 122 126 116 106 95 96 67 69 90 94 84 107 146 92 31 345 250 227 240 176 167 181 188 280 292 214 256 257 229 232 240 243 281 34 252 284 294 264 275 272 273 282 266 252 249 239 245 253 245 239 238 242 245 233 219 216 213 209 210
348 344 351 8 9 2 17 85 117 131 133 133 132 109 88 76 62 62 67 74 84 86 104 132 134 135 131 94 97 116 127 92 97 122 191 342 67 86 132 148 136 157 201 93 14 344 248 208 135 124 125 129 102 69 32 326 248 205 227 256 246 232 197 211 247 200 238 274 282 284 279 212 231 248 241 238 245 247 243 240 243 250 245 231 219 214 211 211
9 13 17 24 38 53 60 92 103 114 126 122 99 84 79 67 56 65 61 63 86 92 91 121 160 126 92 129 123 106 113 113 107 103 138 160 81 69 29 17 55 61 267 28 13 331 272 253 173 123 11 308 156 89 33 344 232 213 249 262 254 239 228 249 260 262 267 283 290 283 278 247 253 259 250 246 247 242 242 244 240 247 249 236 222 215 213 212
37 42 34 39 62 69 73 90 100 112 118 103 81 72 74 70 54 46 44 52 65 56 64 95 90 60 72 148 148 72 95 120 121 104 104 128 101 71 50 44 46 48 65 58 24 359 288 265 226 196 204 205 163 121 41 26 355 238 260 265 259 244 249 264 267 272 274 269 277 278 278 278 277 272 252 245 249 244 243 249 245 244 247 239 226 218 215 214
46 46 46 67 78 78 90 97 102 109 98 83 79 73 71 70 48 23 4 20 27 23 55 78 67 54 66 89 76 66 114 119 121 115 111 137 95 58 55 65 52 50 68 58 29 17 309 276 263 241 216 191 173 185 46 49 66 30 346 325 292 241 240 249 259 277 274 225 255 260 268 281 291 286 256 242 247 245 242 247 249 246 243 238 229 220 217 217
60 45 48 71 75 83 106 109 100 94 81 74 79 74 62 52 36 27 30 10 346 64 76 73 64 57 71 74 61 72 118 95 79 106 103 110 84 53 46 58 47 46 53 27 9 16 321 288 275 265 246 232 261 284 234 156 130 77 10 343 342 283 247 240 238 258 244 194 250 254 266 279 284 281 275 258 247 246 245 243 244 243 237 233 226 219 219 220
63 55 67 80 76 82 105 106 86 75 70 70 77 74 57 43 37 51 67 61 149 122 75 68 67 58 72 88 71 70 81 74 81 103 97 92 83 60 43 41 46 38 17 352 11 13 345 321 284 265 264 273 294 323 330 321 176 171 7 15 30 4 310 281 254 208 217 221 226 273 274 272 291 300 300 287 262 251 250 245 242 244 242 238 227 216 216 217
72 77 86 82 72 74 90 95 79 69 67 68 72 72 64 55 53 72 77 74 101 103 73 69 83 71 67 90 85 70 64 63 71 81 82 84 83 68 40 33 37 25 5 349 2 356 341 334 295 276 274 278 295 320 327 329 315 303 355 16 23 13 342 293 268 251 256 240 184 183 249 280 21 15 334 298 274 257 252 246 239 241 242 239 226 212 210 212
80 83 82 70 59 58 71 86 80 74 75 73 69 72 71 70 77 93 87 80 80 84 87 91 94 79 65 78 96 83 69 62 62 65 71 74 68 61 41 25 13 4 356 338 341 342 331 325 301 292 290 280 287 305 307 314 321 333 5 25 24 17 6 332 272 268 271 247 216 219 233 5 34 30 11 331 292 270 260 252 242 235 234 233 223 210 206 210
84 81 74 66 58 50 59 79 78 71 70 55 42 52 68 78 97 107 108 106 86 78 94 100 86 74 68 71 85 96 86 74 69 66 65 67 69 63 42 14 357 353 354 349 358 2 335 319 298 294 293 280 283 302 308 307 315 326 32 48 29 20 9 352 322 319 319 288 259 243 234 27 27 11 15 4 307 282 259 250 244 233 229 228 222 211 206 211
88 86 82 73 62 57 72 90 89 81 78 61 37 39 71 117 125 125 130 138 111 70 75 82 75 74 75 74 89 121 111 83 72 74 70 60 60 53 18 354 350 344 341 339 341 333 323 319 305 298 291 280 280 300 303 283 250 179 190 33 23 21 6 350 321 316 326 330 339 271 230 20 17 10 23 21 316 300 264 238 234 228 226 226 219 210 206 209
95 97 94 79 69 79 92 102 111 106 97 84 55 45 51 74 108 126 138 140 115 73 66 63 59 85 85 81 108 136 136 110 80 72 62 43 34 26 351 347 350 340 337 340 333 326 324 322 319 320 310 294 292 358 283 247 238 12 337 353 5 5 358 352 341 332 329 343 352 328 268 1 14 16 24 35 334 303 260 224 224 226 224 221 216 209 204 204
118 103 96 93 98 110 105 106 124 127 109 83 63 50 42 55 73 72 71 110 100 67 69 63 47 149 119 107 123 128 144 154 138 57 39 32 20 358 332 339 345 340 340 335 313 307 310 307 315 333 349 309 301 331 325 312 312 318 323 328 337 348 351 349 343 337 333 326 325 319 330 351 8 15 20 42 59 322 203 199 214 220 218 216 213 208 207 206
155 118 104 116 121 121 120 116 133 143 130 94 75 72 66 72 85 82 75 83 67 32 74 92 46 243 191 161 168 144 135 163 200 264 340 358 351 342 329 331 336 337 333 314 291 286 288 294 307 313 303 302 306 316 328 328 315 305 309 316 320 332 338 338 334 325 323 325 316 313 343 347 353 357 1 33 59 79 105 154 195 206 211 213 211 208 209 209
178 147 127 130 115 109 124 118 119 144 151 122 87 85 81 85 101 97 76 79 78 56 92 121 77 321 231 219 230 198 189 217 237 261 288 306 310 313 310 310 314 317 320 314 300 282 268 277 282 287 293 295 305 315 323 320 310 304 304 305 307 318 323 319 316 306 310 321 307 302 335 345 345 342 338 19 56 81 89 100 150 186 205 210 210 209 209 209
135 158 152 142 108 93 103 102 111 132 154 154 125 116 87 71 100 112 86 85 107 101 92 108 90 67 51 340 301 321 309 267 256 268 275 283 291 299 301 304 308 305 313 328 325 298 273 291 292 287 287 280 282 299 308 306 305 305 304 301 300 308 311 304 298 290 294 304 295 300 324 336 333 329 321 340 45 78 80 85 112 161 196 204 207 206 206 209
55 120 153 116 98 98 94 95 134 107 125 160 174 193 222 12 81 128 114 106 122 115 103 101 89 75 55 12 340 4 7 337 320 323 295 290 299 317 325 332 334 310 309 325 328 313 296 306 311 302 292 282 279 281 283 296 306 310 311 306 298 299 302 298 292 285 288 295 294 300 317 325 318 318 309 279 264 84 69 78 98 126 173 194 203 203 204 208
53 74 105 112 112 116 119 174 289 42 104 156 194 218 235 301 294 188 164 121 84 75 145 78 28 52 83 55 20 6 1 326 309 39 308 297 301 320 329 329 328 327 330 336 335 328 321 314 317 320 309 293 286 282 276 284 300 309 313 306 296 300 304 298 291 285 288 295 292 291 302 308 306 315 315 287 258 249 279 71 85 93 121 166 192 200 204 209
51 76 113 127 127 129 140 196 287 325 91 164 202 239 260 297 267 197 186 161 114 80 74 313 320 155 134 88 36 309 302 287 261 234 257 273 271 275 285 290 302 311 316 318 312 307 314 314 314 323 317 306 305 302 294 288 288 294 302 306 308 318 321 308 292 287 290 287 281 282 291 286 278 293 308 303 274 258 255 265 63 68 87 120 160 182 194 202
48 83 123 146 147 147 173 258 293 299 295 211 219 250 264 291 288 203 189 179 177 153 125 260 226 138 151 269 324 315 300 276 258 251 256 263 262 263 265 271 296 306 298 296 296 293 297 305 313 319 311 307 316 318 313 309 292 278 276 297 317 327 332 317 291 285 290 280 275 282 287 280 278 282 288 295 287 270 261 261 278 326 53 91 124 149 168 181
Height
3155 3154 3153 3151 3150 3149 3148 3148 3147 3146 3146 3145 3145 3144 3144 3143 3143 3142 3141 3141 3141 3141 3141 3141 3140 3140 3141 3141 3142 3142 3142 3143 3143 3144 3144 3145 3145 3146 3147 3148 3149 3149 3150 3150 3152 3153 3155 3156 3157 3158 3159 3162 3163 3164 3165 3165 3165 3166 3166 3167 3167 3167 3167 3166 3166 3166 3166 3167 3166 3167 3168 3170 3172 3175 3176 3175 3176 3178 3180 3181 3183 3184 3185 3187 3187 3186 3186 3187
3154 3153 3152 3151 3150 3149 3147 3146 3146 3145 3144 3144 3143 3143 3143 3142 3141 3141 3140 3140 3139 3139 3139 3139 3139 3139 3139 3140 3140 3140 3141 3141 3142 3142 3143 3144 3144 3145 3146 3147 3148 3149 3149 3150 3151 3153 3155 3156 3156 3157 3159 3161 3163 3163 3164 3165 3165 3166 3166 3167 3167 3167 3167 3166 3166 3166 3166 3167 3167 3167 3168 3171 3172 3174 3176 3175 3175 3178 3180 3181 3183 3183 3184 3186 3186 3187 3187 3187
3153 3152 3151 3150 3149 3148 3147 3146 3145 3144 3143 3143 3142 3142 3141 3141 3140 3140 3139 3139 3138 3138 3138 3137 3137 3138 3138 3138 3139 3139 3140 3140 3140 3141 3141 3142 3143 3144 3145 3146 3147 3148 3149 3149 3151 3152 3154 3155 3156 3157 3158 3160 3162 3162 3162 3164 3165 3166 3166 3167 3167 3167 3167 3166 3167 3167 3167 3167 3167 3168 3169 3171 3173 3174 3175 3177 3177 3178 3180 3180 3181 3181 3182 3184 3185 3186 3187 3188
3151 3150 3149 3149 3148 3147 3146 3145 3144 3143 3142 3142 3141 3140 3140 3139 3139 3138 3138 3137 3137 3137 3136 3136 3136 3136 3137 3137 3137 3138 3138 3139 3139 3139 3140 3141 3142 3143 3144 3145 3146 3147 3148 3149 3150 3150 3151 3153 3155 3157 3158 3159 3161 3160 3161 3163 3165 3166 3166 3167 3167 3167 3167 3166 3167 3168 3167 3167 3167 3169 3169 3170 3173 3175 3175 3177 3177 3177 3179 3180 3180 3180 3181 3182 3184 3186 3187 3188
3150 3149 3148 3147 3147 3146 3145 3144 3143 3142 3142 3141 3140 3139 3138 3138 3137 3137 3136 3136 3136 3135 3135 3135 3135 3135 3135 3136 3136 3136 3137 3138 3137 3138 3138 3139 3141 3142 3143 3144 3145 3146 3147 3148 3149 3149 3150 3152 3152 3155 3157 3158 3159 3159 3161 3163 3164 3165 3166 3166 3167 3167 3167 3166 3167 3168 3168 3167 3167 3169 3170 3170 3172 3174 3175 3176 3177 3178 3178 3179 3181 3182 3182 3182 3184 3185 3187 3188
3148 3147 3146 3145 3145 3144 3144 3143 3142 3141 3140 3140 3139 3138 3137 3137 3136 3135 3134 3134 3134 3134 3134 3134 3133 3134 3134 3134 3135 3135 3136 3137 3137 3137 3137 3138 3139 3141 3142 3143 3144 3145 3146 3147 3148 3148 3150 3152 3151 3152 3155 3156 3157 3159 3161 3163 3164 3164 3165 3166 3167 3168 3167 3167 3168 3168 3168 3168 3168 3169 3170 3171 3172 3173 3175 3176 3178 3180 3180 3180 3181 3183 3184 3184 3185 3185 3187 3188
3147 3146 3145 3144 3143 3142 3142 3141 3141 3140 3139 3138 3138 3137 3136 3136 3135 3134 3133 3133 3132 3132 3132 3132 3132 3132 3133 3133 3133 3133 3134 3135 3136 3137 3137 3137 3138 3139 3141 3142 3143 3144 3145 3147 3148 3148 3150 3151 3152 3152 3153 3155 3157 3158 3160 3162 3163 3163 3163 3165 3167 3168 3167 3167 3168 3168 3168 3169 3168 3169 3170 3171 3172 3173 3175 3176 3177 3179 3180 3181 3182 3183 3185 3185 3186 3186 3187 3188
3145 3144 3143 3142 3141 3140 3140 3139 3139 3138 3137 3137 3136 3136 3135 3134 3134 3133 3132 3131 3131 3131 3131 3131 3131 3131 3131 3132 3132 3131 3132 3134 3136 3136 3136 3137 3138 3139 3140 3141 3142 3143 3145 3146 3147 3149 3149 3151 3153 3153 3153 3156 3158 3159 3161 3162 3163 3163 3163 3164 3166 3167 3167 3167 3168 3168 3168 3169 3169 3169 3169 3170 3171 3173 3175 3175 3176 3178 3180 3181 3182 3183 3185 3185 3186 3186 3187 3188
3144 3143 3142 3141 3140 3139 3138 3137 3136 3136 3135 3135 3134 3134 3133 3133 3132 3131 3131 3130 3129 3129 3129 3130 3130 3130 3130 3130 3130 3131 3131 3133 3134 3135 3135 3136 3136 3137 3138 3139 3141 3142 3143 3145 3146 3148 3149 3151 3153 3154 3154 3156 3158 3159 3161 3162 3163 3163 3164 3165 3166 3167 3166 3167 3167 3167 3168 3168 3169 3168 3168 3170 3170 3172 3174 3175 3177 3179 3180 3181 3182 3183 3184 3185 3186 3186 3187 3188
3142 3141 3140 3139 3138 3137 3137 3136 3135 3134 3134 3133 3133 3132 3131 3131 3130 3130 3129 3129 3128 3128 3128 3128 3129 3129 3129 3129 3130 3130 3130 3131 3132 3133 3134 3134 3135 3136 3137 3138 3140 3141 3142 3144 3145 3146 3148 3151 3153 3154 3155 3156 3157 3158 3160 3161 3162 3163 3164 3166 3166 3165 3165 3166 3166 3167 3167 3167 3169 3168 3168 3170 3171 3172 3174 3175 3177 3179 3180 3181 3182 3183 3184 3185 3186 3187 3188 3188
3140 3139 3138 3137 3136 3135 3135 3134 3134 3133 3132 3131 3131 3130 3129 3128 3128 3128 3128 3128 3127 3127 3127 3127 3128 3128 3128 3128 3129 3129 3129 3130 3131 3132 3133 3133 3134 3135 3136 3138 3139 3140 3141 3143 3144 3146 3149 3151 3153 3153 3154 3155 3157 3158 3159 3160 3161 3162 3163 3164 3165 3164 3163 3165 3166 3166 3166 3167 3168 3168 3168 3170 3171 3172 3174 3175 3177 3178 3181 3181 3181 3183 3184 3186 3186 3187 3188 3189
3138 3138 3137 3136 3134 3133 3133 3132 3132 3131 3130 3130 3129 3128 3127 3126 3126 3126 3126 3126 3126 3126 3126 3127 3127 3127 3127 3127 3128 3128 3128 3129 3129 3130 3132 3132 3133 3134 3135 3137 3138 3139 3141 3142 3144 3146 3149 3151 3152 3153 3153 3154 3156 3157 3157 3158 3159 3160 3161 3163 3164 3163 3162 3164 3164 3165 3166 3166 3167 3167 3168 3169 3169 3171 3173 3175 3176 3177 3179 3180 3180 3183 3184 3185 3186 3187 3188 3189
3137 3136 3135 3134 3133 3132 3130 3130 3130 3129 3129 3128 3127 3126 3125 3124 3124 3124 3124 3124 3125 3125 3125 3126 3126 3126 3127 3127 3127 3127 3127 3128 3129 3129 3130 3131 3132 3133 3134 3135 3137 3138 3140 3143 3144 3146 3148 3150 3151 3152 3152 3152 3153 3154 3155 3156 3157 3158 3160 3161 3162 3162 3161 3162 3164 3165 3166 3166 3167 3167 3167 3167 3169 3171 3172 3173 3176 3176 3176 3178 3180 3182 3184 3185 3186 3186 3188 3188
3135 3134 3133 3132 3131 3130 3129 3128 3127 3127 3127 3126 3125 3124 3124 3123 3122 3122 3122 3123 3123 3123 3124 3124 3125 3126 3126 3126 3126 3127 3127 3127 3128 3128 3129 3130 3131 3132 3133 3135 3136 3138 3139 3142 3144 3145 3147 3148 3149 3150 3150 3150 3151 3152 3153 3155 3156 3157 3158 3159 3160 3160 3160 3162 3163 3164 3165 3166 3167 3167 3167 3167 3169 3170 3171 3173 3175 3176 3176 3178 3179 3181 3183 3184 3185 3186 3187 3188
3134 3133 3132 3131 3130 3128 3127 3126 3125 3124 3124 3124 3124 3123 3122 3121 3120 3120 3120 3121 3122 3122 3123 3123 3124 3124 3125 3126 3126 3126 3126 3126 3127 3128 3128 3129 3130 3131 3132 3134 3136 3137 3138 3141 3143 3145 3146 3147 3147 3148 3149 3149 3150 3152 3152 3153 3154 3155 3156 3157 3158 3159 3160 3161 3162 3162 3163 3165 3166 3166 3166 3167 3169 3169 3169 3171 3174 3176 3177 3178 3179 3180 3182 3183 3183 3185 3186 3188
3133 3131 3130 3129 3128 3127 3125 3124 3124 3123 3122 3122 3122 3121 3120 3119 3119 3119 3119 3119 3120 3121 3121 3122 3123 3123 3124 3125 3125 3126 3125 3126 3127 3127 3128 3128 3129 3130 3131 3132 3135 3137 3138 3140 3142 3144 3145 3145 3145 3146 3148 3149 3150 3151 3152 3152 3153 3154 3155 3155 3157 3158 3160 3160 3160 3161 3163 3164 3165 3165 3165 3166 3167 3167 3167 3168 3171 3173 3175 3177 3178 3179 3180 3181 3182 3184 3185 3187
3131 3130 3129 3128 3126 3125 3124 3123 3122 3121 3120 3120 3119 3119 3119 3118 3118 3117 3117 3118 3118 3119 3120 3121 3121 3122 3124 3124 3124 3125 3125 3126 3127 3127 3127 3128 3128 3129 3130 3131 3134 3136 3137 3138 3141 3143 3144 3144 3145 3146 3147 3148 3149 3151 3151 3151 3151 3153 3154 3154 3155 3157 3159 3159 3159 3160 3162 3162 3163 3164 3164 3165 3165 3165 3165 3166 3168 3171 3173 3175 3176 3178 3179 3180 3181 3182 3184 3185
3130 3128 3127 3126 3125 3124 3122 3121 3120 3119 3118 3118 3117 3117 3117 3117 3117 3116 3116 3116 3117 3118 3119 3120 3120 3121 3123 3123 3123 3124 3124 3126 3126 3126 3127 3127 3127 3128 3130 3131 3132 3135 3136 3137 3139 3141 3142 3143 3144 3146 3146 3147 3148 3149 3148 3149 3150 3152 3153 3154 3155 3156 3157 3159 3159 3159 3160 3160 3162 3163 3162 3163 3163 3164 3165 3164 3165 3168 3171 3173 3175 3178 3179 3179 3180 3181 3182 3184
3128 3127 3126 3124 3123 3122 3121 3119 3119 3118 3117 3116 3116 3116 3116 3115 3115 3115 3115 3115 3116 3117 3117 3118 3119 3120 3121 3122 3122 3123 3124 3126 3126 3126 3127 3127 3127 3128 3129 3130 3132 3134 3135 3137 3138 3140 3141 3142 3143 3144 3144 3145 3146 3147 3147 3149 3151 3152 3153 3154 3155 3154 3155 3159 3160 3158 3158 3158 3159 3160 3160 3160 3161 3162 3164 3164 3163 3165 3168 3171 3174 3176 3178 3178 3179 3180 3181 3182
3127 3125 3124 3123 3122 3121 3119 3118 3117 3116 3115 3114 3114 3114 3114 3114 3114 3114 3114 3115 3115 3115 3116 3117 3118 3118 3119 3120 3121 3123 3124 3125 3126 3126 3126 3126 3127 3128 3129 3130 3131 3132 3134 3136 3138 3139 3141 3141 3141 3142 3143 3144 3146 3147 3148 3149 3150 3151 3152 3152 3153 3152 3151 3155 3159 3157 3156 3156 3155 3157 3158 3158 3159 3161 3162 3163 3163 3164 3165 3167 3170 3172 3175 3176 3177 3178 3180 3181
3125 3124 3122 3121 3120 3119 3118 3116 3115 3114 3114 3113 3113 3113 3112 3112 3112 3113 3113 3114 3114 3115 3115 3116 3117 3118 3118 3119 3120 3123 3124 3124 3125 3125 3126 3126 3127 3128 3129 3130 3131 3132 3133 3135 3137 3139 3140 3139 3140 3141 3143 3144 3145 3147 3149 3149 3150 3150 3151 3151 3151 3150 3148 3151 3156 3155 3153 3152 3152 3155 3157 3156 3157 3159 3161 3161 3162 3162 3162 3163 3165 3168 3171 3174 3175 3177 3179 3181
3124 3122 3120 3120 3118 3117 3116 3115 3114 3113 3112 3112 3111 3111 3111 3111 3111 3112 3113 3113 3114 3114 3115 3116 3117 3118 3118 3118 3120 3122 3123 3124 3124 3124 3125 3127 3128 3128 3129 3130 3131 3132 3133 3135 3136 3138 3138 3138 3139 3141 3143 3144 3145 3146 3148 3148 3149 3149 3150 3151 3149 3148 3147 3150 3153 3151 3151 3152 3152 3153 3154 3154 3155 3158 3158 3159 3160 3162 3162 3162 3163 3165 3168 3171 3173 3175 3177 3179
3122 3120 3119 3118 3116 3115 3114 3113 3112 3111 3111 3110 3110 3109 3109 3110 3110 3111 3111 3112 3113 3114 3114 3115 3116 3116 3117 3118 3120 3121 3122 3123 3123 3124 3126 3127 3127 3128 3129 3130 3131 3132 3133 3134 3135 3136 3137 3137 3138 3141 3142 3143 3144 3145 3146 3147 3148 3147 3148 3149 3147 3146 3148 3150 3151 3150 3151 3152 3152 3153 3155 3155 3156 3157 3158 3158 3160 3162 3162 3163 3164 3165 3167 3169 3171 3173 3175 3177
3120 3118 3117 3116 3115 3113 3112 3112 3111 3110 3109 3109 3108 3108 3108 3108 3109 3110 3110 3111 3112 3113 3114 3115 3115 3116 3116 3118 3119 3121 3122 3122 3123 3124 3126 3126 3127 3128 3129 3130 3131 3132 3133 3134 3135 3136 3136 3136 3138 3140 3141 3142 3143 3144 3145 3146 3146 3146 3146 3146 3144 3144 3147 3150 3153 3153 3152 3152 3152 3155 3158 3158 3157 3156 3156 3157 3160 3161 3161 3162 3163 3164 3166 3168 3170 3172 3174 3175
3118 3117 3115 3114 3113 3112 3111 3110 3109 3109 3108 3107 3107 3107 3107 3107 3108 3109 3109 3110 3111 3112 3113 3114 3115 3115 3116 3117 3119 3120 3122 3122 3123 3124 3126 3126 3127 3127 3128 3129 3130 3131 3132 3134 3135 3135 3136 3136 3137 3138 3140 3141 3142 3142 3143 3144 3144 3144 3143 3143 3143 3143 3146 3149 3152 3153 3153 3153 3154 3156 3158 3158 3157 3156 3155 3156 3158 3159 3160 3160 3160 3163 3165 3166 3168 3170 3172 3174
3116 3115 3113 3112 3112 3110 3109 3108 3108 3107 3107 3107 3107 3107 3107 3106 3107 3108 3108 3109 3110 3111 3112 3114 3115 3115 3116 3117 3119 3120 3121 3122 3123 3124 3125 3126 3126 3126 3127 3128 3129 3130 3132 3133 3133 3134 3134 3135 3136 3138 3139 3140 3141 3141 3142 3143 3143 3142 3140 3141 3142 3143 3145 3148 3150 3151 3151 3151 3151 3153 3154 3155 3155 3155 3156 3156 3157 3159 3161 3161 3160 3161 3163 3163 3165 3167 3169 3171
3115 3113 3112 3110 3110 3109 3108 3107 3106 3106 3106 3106 3107 3107 3107 3106 3106 3107 3108 3109 3110 3111 3112 3113 3114 3115 3116 3118 3119 3120 3121 3122 3123 3124 3125 3125 3125 3126 3127 3127 3128 3129 3130 3130 3131 3132 3133 3134 3135 3137 3138 3138 3139 3139 3140 3141 3142 3140 3138 3140 3140 3141 3144 3146 3147 3148 3148 3148 3148 3149 3150 3152 3153 3153 3154 3156 3158 3159 3159 3159 3160 3160 3160 3161 3162 3164 3166 3168
3113 3112 3110 3108 3108 3107 3106 3106 3105 3105 3105 3106 3106 3106 3106 3106 3106 3107 3107 3109 3110 3111 3113 3114 3115 3116 3117 3118 3120 3121 3121 3121 3122 3123 3124 3125 3125 3126 3126 3126 3127 3128 3128 3129 3129 3130 3131 3131 3132 3134 3135 3136 3137 3138 3139 3140 3140 3139 3138 3138 3138 3139 3142 3144 3144 3145 3145 3146 3146 3147 3148 3151 3151 3151 3153 3155 3157 3157 3155 3155 3155 3156 3157 3158 3160 3161 3164 3166
3111 3110 3109 3107 3106 3105 3105 3105 3105 3104 3104 3105 3105 3105 3105 3106 3106 3107 3107 3109 3111 3111 3113 3115 3115 3117 3117 3118 3119 3120 3121 3121 3122 3123 3124 3125 3125 3125 3126 3126 3127 3127 3128 3128 3127 3128 3129 3130 3130 3131 3132 3134 3135 3136 3137 3139 3139 3139 3139 3138 3137 3137 3139 3141 3142 3142 3143 3144 3144 3145 3146 3148 3148 3148 3150 3153 3154 3151 3150 3150 3151 3153 3155 3156 3158 3160 3162 3164
3110 3108 3107 3106 3104 3104 3103 3104 3104 3104 3104 3104 3104 3105 3105 3106 3107 3107 3108 3110 3111 3112 3113 3115 3116 3117 3118 3118 3119 3120 3120 3121 3122 3123 3124 3124 3125 3125 3125 3126 3126 3126 3126 3127 3126 3127 3128 3129 3130 3131 3132 3133 3133 3134 3135 3137 3138 3138 3139 3137 3136 3136 3136 3138 3139 3140 3141 3141 3141 3143 3144 3146 3145 3144 3145 3147 3146 3143 3143 3146 3149 3151 3154 3155 3156 3158 3160 3162
3109 3107 3106 3105 3103 3103 3102 3103 3103 3103 3103 3104 3104 3105 3106 3107 3107 3107 3108 3111 3112 3113 3114 3115 3116 3117 3117 3117 3118 3119 3120 3121 3122 3123 3124 3124 3124 3124 3124 3124 3124 3125 3125 3125 3125 3125 3126 3128 3130 3131 3132 3132 3131 3132 3133 3134 3136 3137 3137 3137 3136 3135 3135 3135 3136 3138 3139 3139 3140 3141 3144 3145 3143 3141 3141 3141 3139 3139 3140 3142 3144 3146 3149 3151 3153 3155 3157 3159
3108 3106 3105 3104 3103 3102 3102 3102 3102 3103 3103 3104 3104 3105 3106 3107 3108 3108 3109 3111 3112 3114 3114 3115 3116 3116 3117 3117 3117 3118 3120 3121 3122 3123 3124 3124 3123 3123 3123 3123 3123 3124 3124 3124 3124 3124 3125 3127 3128 3129 3131 3130 3129 3129 3130 3131 3133 3135 3135 3135 3135 3135 3136 3135 3135 3136 3136 3135 3137 3139 3141 3141 3140 3138 3139 3138 3137 3138 3139 3140 3142 3143 3146 3148 3149 3152 3154 3156
3107 3105 3104 3103 3102 3102 3102 3102 3102 3103 3103 3104 3105 3106 3107 3107 3109 3111 3110 3111 3113 3114 3115 3115 3116 3116 3117 3117 3118 3119 3120 3121 3122 3122 3123 3123 3123 3122 3123 3123 3123 3123 3124 3124 3124 3124 3125 3125 3126 3128 3128 3128 3128 3128 3129 3130 3130 3132 3133 3134 3135 3136 3138 3139 3136 3135 3135 3133 3133 3136 3137 3137 3136 3136 3137 3136 3135 3137 3139 3140 3142 3143 3145 3147 3148 3149 3152 3154
3106 3104 3103 3103 3102 3102 3102 3102 3103 3103 3104 3105 3107 3107 3107 3108 3110 3111 3111 3111 3113 3114 3114 3115 3115 3116 3117 3117 3118 3119 3120 3121 3121 3121 3121 3121 3122 3122 3122 3122 3123 3123 3123 3123 3124 3124 3124 3124 3125 3126 3126 3127 3128 3129 3130 3129 3128 3129 3132 3133 3134 3135 3137 3138 3136 3135 3134 3132 3131 3133 3134 3134 3134 3134 3135 3136 3136 3137 3138 3139 3141 3142 3144 3147 3149 3150 3151 3153
3106 3104 3104 3104 3103 3103 3103 3103 3104 3105 3106 3108 3108 3107 3107 3110 3111 3111 3111 3112 3114 3114 3114 3115 3115 3116 3116 3117 3118 3119 3119 3120 3120 3119 3120 3122 3122 3122 3122 3122 3122 3123 3122 3123 3124 3124 3123 3123 3124 3125 3126 3127 3128 3129 3130 3128 3128 3130 3131 3133 3134 3134 3135 3135 3135 3135 3135 3134 3131 3131 3132 3133 3133 3132 3133 3135 3136 3136 3137 3138 3140 3140 3142 3145 3148 3149 3150 3151
3106 3105 3105 3104 3104 3104 3104 3104 3105 3106 3108 3109 3108 3107 3109 3112 3113 3113 3112 3113 3114 3114 3114 3114 3115 3115 3116 3117 3118 3119 3119 3120 3120 3120 3121 3122 3122 3123 3123 3123 3123 3123 3123 3124 3125 3125 3123 3122 3123 3125 3126 3127 3128 3129 3130 3130 3130 3130 3131 3132 3133 3134 3134 3134 3134 3134 3135 3136 3133 3130 3130 3131 3131 3130 3130 3132 3134 3134 3136 3136 3137 3139 3140 3142 3144 3146 3147 3148
3107 3107 3106 3105 3105 3105 3105 3106 3108 3108 3109 3108 3107 3109 3112 3113 3113 3114 3114 3114 3114 3114 3114 3114 3115 3116 3116 3117 3118 3118 3118 3119 3120 3120 3121 3121 3122 3123 3124 3124 3125 3125 3124 3124 3125 3125 3124 3122 3122 3124 3125 3126 3127 3128 3130 3131 3130 3130 3131 3131 3131 3132 3133 3133 3134 3134 3135 3136 3133 3131 3130 3130 3131 3129 3128 3129 3130 3131 3133 3134 3135 3136 3137 3138 3140 3143 3145 3146
3108 3108 3107 3106 3106 3107 3107 3108 3109 3110 3109 3108 3108 3111 3113 3113 3114 3114 3114 3114 3115 3115 3115 3115 3116 3116 3116 3116 3117 3118 3118 3118 3119 3120 3120 3121 3123 3125 3124 3125 3125 3125 3125 3125 3125 3126 3125 3122 3121 3122 3124 3125 3127 3127 3128 3129 3129 3130 3131 3131 3131 3131 3131 3132 3133 3133 3134 3135 3133 3131 3130 3131 3131 3130 3128 3127 3128 3128 3130 3131 3132 3132 3134 3136 3137 3140 3142 3144
3109 3108 3108 3108 3108 3109 3109 3110 3110 3110 3109 3109 3111 3113 3114 3114 3114 3114 3114 3115 3115 3115 3116 3116 3116 3116 3116 3117 3118 3118 3118 3118 3119 3119 3119 3121 3124 3125 3124 3125 3125 3125 3125 3125 3126 3126 3127 3125 3121 3120 3122 3124 3126 3127 3128 3128 3127 3127 3129 3130 3131 3131 3130 3130 3132 3132 3133 3133 3133 3132 3130 3131 3132 3130 3127 3125 3125 3126 3126 3126 3127 3128 3130 3132 3134 3137 3139 3141
3109 3109 3109 3110 3110 3111 3111 3111 3111 3110 3110 3111 3113 3114 3115 3114 3115 3115 3115 3115 3115 3115 3116 3116 3116 3116 3116 3117 3118 3119 3119 3119 3120 3119 3120 3122 3124 3125 3125 3125 3126 3126 3126 3126 3127 3127 3127 3127 3123 3119 3121 3123 3126 3128 3128 3129 3129 3128 3129 3130 3131 3131 3130 3129 3129 3130 3131 3131 3132 3131 3130 3130 3131 3129 3125 3122 3120 3121 3122 3122 3123 3124 3125 3128 3131 3134 3136 3138
3111 3111 3111 3112 3112 3112 3112 3112 3111 3111 3112 3113 3114 3115 3115 3115 3115 3115 3116 3115 3115 3115 3116 3116 3116 3116 3117 3117 3119 3120 3120 3120 3120 3120 3121 3123 3124 3124 3125 3126 3126 3126 3126 3126 3127 3127 3127 3128 3124 3120 3120 3121 3123 3127 3129 3130 3131 3132 3133 3134 3134 3133 3132 3131 3129 3128 3129 3129 3129 3129 3127 3126 3128 3127 3123 3120 3117 3116 3117 3118 3119 3120 3122 3124 3128 3131 3133 3136
3113 3112 3113 3112 3112 3112 3113 3112 3112 3113 3113 3114 3115 3115 3115 3116 3116 3116 3116 3116 3116 3116 3116 3116 3116 3117 3117 3117 3119 3120 3120 3121 3121 3121 3122 3123 3124 3124 3126 3126 3126 3126 3126 3126 3127 3127 3128 3127 3125 3122 3121 3120 3122 3125 3127 3129 3131 3132 3134 3134 3134 3133 3134 3135 3133 3130 3129 3127 3126 3127 3125 3123 3125 3124 3120 3117 3114 3113 3114 3114 3115 3117 3119 3122 3125 3129 3132 3134
3114 3114 3113 3113 3112 3112 3113 3113 3113 3114 3115 3115 3116 3116 3115 3116 3116 3116 3117 3117 3116 3116 3116 3117 3117 3118 3118 3118 3119 3119 3120 3122 3122 3122 3123 3124 3124 3125 3126 3126 3125 3125 3125 3126 3126 3127 3128 3127 3126 3123 3120 3118 3120 3124 3125 3127 3129 3131 3131 3132 3133 3133 3134 3135 3134 3132 3130 3127 3126 3126 3124 3122 3122 3121 3118 3115 3112 3111 3110 3111 3112 3113 3116 3120 3123 3126 3129 3132
3115 3115 3114 3114 3113 3113 3113 3114 3115 3115 3116 3116 3116 3116 3116 3116 3116 3117 3117 3117 3117 3118 3117 3118 3118 3118 3119 3119 3119 3119 3120 3122 3123 3123 3123 3124 3124 3125 3125 3125 3125 3124 3124 3125 3125 3126 3127 3127 3127 3126 3122 3119 3120 3124 3125 3124 3126 3128 3130 3131 3132 3133 3133 3132 3131 3131 3129 3127 3128 3128 3126 3123 3122 3121 3118 3113 3110 3108 3106 3107 3108 3110 3114 3119 3122 3125 3128 3131
3116 3116 3115 3115 3114 3114 3114 3115 3116 3116 3116 3116 3116 3117 3117 3116 3117 3117 3118 3118 3118 3118 3118 3118 3118 3118 3119 3119 3119 3119 3120 3121 3122 3123 3123 3124 3125 3125 3125 3125 3125 3124 3124 3125 3124 3125 3126 3127 3127 3129 3129 3127 3126 3128 3129 3127 3126 3127 3128 3129 3130 3131 3131 3131 3130 3130 3128 3127 3126 3127 3127 3125 3122 3120 3117 3112 3108 3106 3105 3105 3107 3110 3113 3116 3119 3123 3126 3129
3117 3116 3116 3116 3116 3115 3114 3115 3116 3117 3117 3117 3117 3117 3117 3117 3117 3117 3117 3118 3118 3118 3118 3118 3118 3118 3119 3119 3119 3119 3120 3121 3121 3122 3122 3123 3124 3124 3125 3125 3124 3123 3124 3124 3124 3125 3126 3127 3127 3128 3130 3130 3129 3129 3131 3130 3128 3127 3128 3128 3129 3129 3130 3131 3131 3130 3129 3127 3125 3125 3127 3125 3121 3119 3117 3113 3109 3106 3105 3105 3106 3108 3110 3113 3116 3119 3122 3125
3117 3117 3117 3117 3117 3116 3115 3116 3117 3117 3117 3117 3117 3117 3117 3117 3117 3117 3117 3117 3118 3118 3117 3117 3117 3117 3118 3118 3119 3119 3120 3120 3120 3120 3121 3121 3122 3123 3124 3123 3122 3123 3124 3124 3124 3125 3126 3126 3127 3128 3128 3129 3128 3127 3128 3129 3128 3127 3128 3128 3128 3128 3129 3130 3130 3129 3129 3128 3124 3123 3125 3125 3122 3120 3118 3116 3112 3107 3104 3105 3106 3108 3110 3112 3114 3116 3119 3123
3117 3117 3117 3117 3117 3117 3116 3116 3116 3117 3117 3117 3116 3116 3117 3117 3117 3117 3116 3117 3117 3117 3117 3117 3117 3117 3118 3118 3118 3119 3119 3119 3119 3120 3120 3120 3120 3121 3122 3122 3122 3123 3124 3124 3124 3125 3125 3125 3126 3126 3126 3127 3127 3126 3127 3127 3127 3127 3127 3128 3127 3127 3127 3127 3127 3127 3128 3128 3125 3122 3124 3125 3123 3120 3119 3117 3114 3110 3107 3105 3105 3108 3110 3111 3112 3114 3118 3121
3118 3117 3117 3118 3118 3117 3116 3116 3116 3117 3117 3116 3116 3116 3117 3117 3118 3117 3117 3117 3117 3117 3117 3117 3117 3118 3119 3118 3118 3119 3119 3119 3120 3121 3121 3121 3122 3122 3122 3123 3123 3124 3124 3124 3124 3124 3124 3124 3125 3124 3124 3124 3125 3125 3126 3125 3124 3124 3125 3126 3126 3126 3126 3125 3125 3125 3126 3126 3125 3123 3124 3124 3122 3120 3119 3118 3116 3114 3112 3108 3105 3105 3108 3110 3111 3114 3117 3118
3118 3118 3117 3118 3117 3117 3116 3116 3116 3117 3117 3117 3116 3116 3117 3117 3117 3117 3118 3117 3117 3117 3117 3117 3118 3119 3119 3119 3119 3120 3120 3120 3121 3122 3122 3122 3123 3123 3123 3123 3123 3123 3123 3123 3123 3123 3123 3123 3123 3122 3122 3122 3123 3124 3124 3123 3122 3122 3122 3124 3125 3125 3125 3123 3123 3123 3123 3124 3123 3123 3123 3123 3121 3119 3119 3119 3118 3115 3113 3111 3107 3106 3107 3108 3110 3112 3114 3116
3118 3118 3118 3118 3117 3116 3116 3116 3116 3116 3117 3117 3117 3116 3116 3117 3117 3117 3118 3117 3116 3117 3117 3118 3118 3119 3119 3119 3120 3120 3121 3121 3121 3121 3121 3122 3122 3122 3122 3122 3122 3122 3122 3122 3122 3122 3122 3122 3121 3121 3121 3121 3121 3122 3122 3121 3120 3119 3121 3123 3124 3123 3122 3121 3121 3121 3121 3121 3121 3121 3121 3120 3120 3119 3118 3118 3118 3116 3113 3111 3110 3109 3108 3106 3108 3110 3112 3114
3119 3119 3118 3118 3117 3117 3117 3116 3116 3116 3116 3116 3117 3116 3115 3116 3116 3117 3117 3117 3116 3117 3118 3118 3118 3119 3119 3119 3120 3120 3120 3120 3120 3120 3120 3120 3120 3121 3121 3121 3121 3121 3121 3121 3121 3121 3122 3121 3121 3121 3120 3119 3121 3121 3120 3120 3119 3118 3120 3122 3121 3121 3121 3119 3119 3119 3118 3119 3120 3120 3119 3119 3118 3116 3116 3116 3115 3115 3112 3109 3110 3111 3109 3108 3109 3111 3112 3113